period_start,C,m1,H,J0,J1,J2,J3,J4,J5,JA,JB,JC,JD,JJ,JK,JN,#
2013-08-03 00:00:59,-0.02,0.15,0.00,25.61,28.30,30.72,5.83,31.08,1014.22,2048.92,3445.99,3301.99,3591.19,350.21,320.54,25.53,0000 0000 0000 0000 000000
2013-08-03 00:01:59,0.02,0.15,0.00,25.58,28.30,30.70,5.96,31.46,1014.24,2048.93,3445.99,3301.99,3591.16,350.59,320.96,25.53,0000 0000 0000 0000 000000
2013-08-03 00:03:00,0.03,0.15,0.00,25.56,28.30,30.67,5.92,31.13,1014.21,2048.90,3445.99,3301.99,3591.15,350.47,320.86,25.54,0000 0000 0000 0000 000000
2013-08-03 00:04:00,-0.03,0.15,0.00,25.62,28.31,30.68,5.90,31.54,1014.22,2048.88,3445.99,3301.99,3591.16,349.03,319.49,25.54,0000 0000 0000 0000 000000
2013-08-03 00:05:00,-0.01,0.15,0.00,25.64,28.31,30.74,5.79,31.13,1014.19,2048.92,3445.99,3301.99,3591.21,349.81,320.00,25.55,0000 0000 0000 0000 000000
2013-08-03 00:06:00,0.03,0.15,0.00,25.66,28.31,30.69,6.00,31.33,1014.21,2048.93,3445.99,3301.99,3591.19,350.27,320.57,25.55,0000 0000 0000 0000 000000
2013-08-03 00:07:01,0.02,0.15,0.00,25.66,28.31,30.72,5.81,31.08,1014.18,2048.95,3445.99,3301.99,3591.21,349.55,320.10,25.56,0000 0000 0000 0000 000000
2013-08-03 00:08:01,0.00,0.15,0.00,25.67,28.32,30.72,5.82,31.21,1014.18,2048.94,3445.99,3301.99,3591.18,349.16,319.63,25.57,0000 0000 0000 0000 000000
2013-08-03 00:09:01,0.00,0.15,0.00,25.68,28.32,30.71,5.97,31.25,1014.22,2048.94,3445.99,3301.99,3591.17,350.15,320.27,25.57,0000 0000 0000 0000 000000
2013-08-03 00:10:02,-0.00,0.15,0.00,25.64,28.32,30.72,5.83,31.17,1014.22,2048.92,3445.99,3301.99,3591.14,349.34,319.74,25.58,0000 0000 0000 0000 000000
2013-08-03 00:11:02,-0.02,0.15,0.00,25.59,28.32,30.74,5.86,31.29,1014.22,2048.94,3445.99,3301.99,3591.17,349.50,320.30,25.58,0000 0000 0000 0000 000000
2013-08-03 00:12:02,0.00,0.15,0.00,25.66,28.32,30.75,5.88,31.25,1014.20,2048.95,3445.99,3301.99,3591.13,350.38,320.71,25.59,0000 0000 0000 0000 000000
2013-08-03 00:13:02,-0.00,0.15,0.00,25.71,28.32,30.74,5.96,31.25,1014.23,2048.86,3445.99,3301.98,3591.06,350.93,321.13,25.60,0000 0000 0000 0000 000000
2013-08-03 00:14:02,-0.07,0.15,0.00,25.68,28.32,30.75,6.05,31.33,1014.24,2048.73,3445.99,3301.99,3591.06,350.59,320.84,25.60,0000 0000 0000 0000 000000
2013-08-03 00:15:02,-0.07,0.15,0.00,25.65,28.32,30.77,5.97,31.08,1014.23,2048.80,3445.99,3301.99,3591.05,350.57,320.86,25.61,0000 0000 0000 0000 000000
2013-08-03 00:16:02,0.05,0.15,0.00,25.65,28.32,30.77,5.88,31.29,1014.24,2048.78,3445.99,3301.99,3591.02,349.13,319.74,25.61,0000 0000 0000 0000 000000
2013-08-03 00:17:03,-0.02,0.15,0.00,25.65,28.32,30.80,5.87,31.29,1014.23,2048.82,3445.99,3301.99,3591.05,350.64,320.92,25.62,0000 0000 0000 0000 000000
2013-08-03 00:18:03,0.04,0.15,0.00,25.70,28.32,30.77,5.86,31.29,1014.26,2048.79,3445.97,3301.98,3591.03,349.92,319.82,25.62,0000 0000 0000 0000 000000
2013-08-03 00:19:03,-0.02,0.15,0.00,25.68,28.32,30.76,5.74,31.17,1014.24,2048.74,3445.98,3301.98,3591.03,349.18,319.55,25.63,0000 0000 0000 0000 000000
2013-08-03 00:20:04,-0.04,0.15,0.00,25.65,28.32,30.78,5.88,31.25,1014.24,2048.71,3445.99,3301.98,3591.02,349.71,320.18,25.64,0000 0000 0000 0000 000000
2013-08-03 00:21:04,0.00,0.15,0.00,25.67,28.32,30.80,5.88,31.21,1014.24,2048.75,3445.99,3301.99,3591.04,349.98,320.56,25.64,0000 0000 0000 0000 000000
2013-08-03 00:22:04,0.03,0.15,0.00,25.67,28.32,30.80,5.83,31.38,1014.23,2048.78,3445.99,3301.98,3591.01,348.55,319.28,25.65,0000 0000 0000 0000 000000
2013-08-03 00:23:04,0.04,0.15,0.00,25.68,28.33,30.79,5.89,31.21,1014.20,2048.68,3445.98,3301.98,3591.01,350.39,320.93,25.65,0000 0000 0000 0000 000000
2013-08-03 00:24:04,-0.09,0.15,0.00,25.70,28.34,30.82,5.92,31.13,1014.19,2048.61,3445.99,3301.96,3591.00,349.90,320.18,25.66,0000 0000 0000 0000 000000
2013-08-03 00:25:05,-0.10,0.15,0.00,25.72,28.34,30.84,5.86,31.13,1014.22,2048.74,3445.99,3301.97,3591.01,350.15,320.39,25.67,0000 0000 0000 0000 000000
2013-08-03 00:26:05,0.14,0.15,0.00,25.71,28.34,30.81,5.95,31.17,1014.21,2048.80,3445.98,3301.97,3591.03,350.38,320.61,25.67,0000 0000 0000 0000 000000
2013-08-03 00:27:05,0.03,0.15,0.00,25.72,28.35,30.82,5.95,31.29,1014.20,2048.78,3445.98,3301.97,3591.01,350.46,320.82,25.68,0000 0000 0000 0000 000000
2013-08-03 00:28:05,-0.01,0.15,0.00,25.72,28.35,30.83,5.88,31.33,1014.21,2048.78,3445.98,3301.97,3591.00,349.90,320.16,25.68,0000 0000 0000 0000 000000
2013-08-03 00:29:06,0.00,0.15,0.00,25.74,28.35,30.85,5.95,31.42,1014.20,2048.66,3445.98,3301.92,3591.00,350.12,320.34,25.69,0000 0000 0000 0000 000000
2013-08-03 00:30:06,-0.08,0.15,0.00,25.69,28.35,30.84,5.96,31.25,1014.21,2048.65,3445.97,3301.93,3591.00,350.70,321.08,25.69,0000 0000 0000 0000 000000
2013-08-03 00:31:06,-0.01,0.15,0.00,25.70,28.35,30.85,5.92,31.42,1014.19,2048.58,3445.94,3301.91,3591.00,350.31,320.56,25.70,0000 0000 0000 0000 000000
2013-08-03 00:32:06,-0.05,0.15,0.00,25.65,28.35,30.82,5.85,31.21,1014.22,2048.39,3445.93,3301.84,3591.00,349.57,319.93,25.71,0000 0000 0000 0000 000000
2013-08-03 00:33:06,-0.11,0.15,0.00,25.57,28.35,30.79,5.83,31.46,1014.19,2048.25,3445.87,3301.67,3591.00,350.34,320.43,25.71,0000 0000 0000 0000 000000
2013-08-03 00:34:06,-0.07,0.15,0.00,25.55,28.35,30.80,5.96,31.29,1014.21,2048.25,3445.87,3301.63,3591.00,350.16,320.58,25.72,0000 0000 0000 0000 000000
2013-08-03 00:35:07,0.01,0.15,0.00,25.59,28.35,30.83,5.94,31.54,1014.20,2048.31,3445.82,3301.52,3591.00,350.62,320.91,25.72,0000 0000 0000 0000 000000
2013-08-03 00:36:07,0.08,0.15,0.00,25.68,28.35,30.83,5.95,31.08,1014.18,2048.31,3445.71,3301.47,3591.00,350.57,320.66,25.73,0000 0000 0000 0000 000000
2013-08-03 00:37:07,0.00,0.15,0.00,25.72,28.36,30.83,5.83,31.13,1014.20,2048.24,3445.69,3301.38,3590.99,349.81,320.14,25.74,0000 0000 0000 0000 000000
2013-08-03 00:38:07,-0.02,0.15,0.00,25.68,28.37,30.83,5.87,31.33,1014.18,2048.27,3445.47,3301.28,3590.99,349.20,319.56,25.74,0000 0000 0000 0000 000000
2013-08-03 00:39:08,0.06,0.15,0.00,25.71,28.37,30.86,5.87,31.25,1014.21,2048.18,3445.40,3301.18,3590.99,350.07,320.34,25.75,0000 0000 0000 0000 000000
2013-08-03 00:40:08,-0.04,0.15,0.00,25.73,28.37,30.86,5.88,31.08,1014.18,2048.16,3445.40,3301.14,3590.98,349.70,320.12,25.75,0000 0000 0000 0000 000000
2013-08-03 00:41:08,0.02,0.15,0.00,25.72,28.37,30.86,6.07,31.17,1014.18,2048.15,3445.38,3301.09,3590.98,350.42,320.63,25.76,0000 0000 0000 0000 000000
2013-08-03 00:42:08,-0.01,0.15,0.00,25.72,28.37,30.87,5.94,31.71,1014.18,2048.11,3445.28,3301.06,3590.97,350.03,320.28,25.76,0000 0000 0000 0000 000000
2013-08-03 00:43:08,-0.00,0.15,0.00,25.75,28.37,30.88,5.95,31.46,1014.18,2048.08,3445.19,3301.04,3590.96,349.94,320.10,25.77,0000 0000 0000 0000 000000
2013-08-03 00:44:08,-0.01,0.15,0.00,25.76,28.37,30.86,5.84,31.38,1014.18,2048.11,3445.09,3301.02,3590.92,349.40,319.66,25.78,0000 0000 0000 0000 000000
2013-08-03 00:45:09,0.05,0.15,0.00,25.76,28.37,30.88,6.01,31.42,1014.19,2048.07,3445.06,3301.03,3590.90,351.43,321.78,25.78,0000 0000 0000 0000 000000
2013-08-03 00:46:09,-0.03,0.15,0.00,25.79,28.38,30.86,6.01,31.38,1014.20,2048.07,3445.13,3301.02,3590.93,350.46,320.78,25.79,0000 0000 0000 0000 000000
2013-08-03 00:47:09,-0.01,0.15,0.00,25.75,28.38,30.86,5.90,31.29,1014.19,2048.06,3445.12,3301.02,3590.96,349.76,319.56,25.79,0000 0000 0000 0000 000000
2013-08-03 00:48:09,-0.00,0.15,0.00,25.78,28.39,30.88,6.02,31.04,1014.19,2048.05,3445.07,3301.04,3590.94,350.11,320.29,25.80,0000 0000 0000 0000 000000
2013-08-03 00:49:10,-0.01,0.15,0.00,25.80,28.40,30.88,5.93,31.25,1014.20,2048.03,3445.07,3301.05,3590.93,350.35,320.49,25.81,0000 0000 0000 0000 000000
2013-08-03 00:50:10,-0.01,0.15,0.00,25.80,28.40,30.86,5.78,31.25,1014.20,2048.05,3445.06,3301.04,3590.95,348.93,319.19,25.81,0000 0000 0000 0000 000000
2013-08-03 00:51:10,0.01,0.15,0.00,25.82,28.40,30.89,6.01,31.21,1014.19,2048.07,3445.03,3301.03,3590.97,351.65,321.65,25.82,0000 0000 0000 0000 000000
2013-08-03 00:52:10,0.04,0.15,0.00,25.83,28.40,30.92,5.84,31.42,1014.19,2048.14,3445.02,3301.03,3590.96,349.21,319.42,25.82,0000 0000 0000 0000 000000
2013-08-03 00:53:11,0.03,0.15,0.00,25.75,28.40,30.89,5.98,31.08,1014.20,2048.12,3445.02,3301.03,3590.95,350.73,321.30,25.83,0000 0000 0000 0000 000000
2013-08-03 00:54:11,-0.01,0.15,0.00,25.78,28.40,30.91,5.91,31.25,1014.20,2048.09,3445.02,3301.02,3590.85,349.74,319.96,25.84,0000 0000 0000 0000 000000
2013-08-03 00:55:11,-0.02,0.15,0.00,25.81,28.40,30.92,6.05,31.50,1014.21,2048.06,3445.05,3301.01,3590.79,349.51,319.71,25.84,0000 0000 0000 0000 000000
2013-08-03 00:56:12,0.00,0.15,0.00,25.84,28.40,30.93,6.02,31.21,1014.24,2048.04,3445.03,3301.00,3590.64,349.96,320.00,25.85,0000 0000 0000 0000 000000
2013-08-03 00:57:12,-0.00,0.15,0.00,25.86,28.42,30.92,5.90,31.17,1014.23,2048.04,3445.02,3301.00,3590.70,349.69,319.98,25.85,0000 0000 0000 0000 000000
2013-08-03 00:58:12,0.00,0.15,0.00,25.89,28.42,30.92,6.02,31.29,1014.24,2048.04,3445.01,3301.00,3590.49,351.21,321.06,25.86,0000 0000 0000 0000 000000
2013-08-03 00:59:12,0.03,0.15,0.00,25.88,28.42,30.94,5.90,31.21,1014.25,2048.04,3445.00,3301.00,3590.26,350.31,320.38,25.86,0000 0000 0000 0000 000000
2013-08-03 01:00:12,0.02,0.15,0.00,25.89,28.42,30.94,5.96,31.38,1014.23,2048.01,3445.00,3301.00,3590.20,350.35,320.40,25.87,0000 0000 0000 0000 000000
2013-08-03 01:01:12,0.00,0.15,0.00,25.89,28.42,30.94,6.02,31.38,1014.32,2048.03,3445.00,3301.00,3590.10,350.33,320.42,25.88,0000 0000 0000 0000 000000
2013-08-03 01:02:13,0.02,0.15,0.00,25.90,28.42,30.97,5.76,31.38,1014.36,2048.04,3445.00,3301.00,3590.06,349.42,320.09,25.88,0000 0000 0000 0000 000000
2013-08-03 01:03:13,0.00,0.15,0.00,25.91,28.42,30.99,5.88,31.21,1014.34,2048.01,3445.00,3301.00,3590.03,349.18,319.45,25.89,0000 0000 0000 0000 000000
2013-08-03 01:04:13,-0.01,0.15,0.00,25.94,28.43,31.00,5.94,31.46,1014.34,2048.01,3445.00,3300.99,3590.03,349.54,320.04,25.89,0000 0000 0000 0000 000000
2013-08-03 01:05:13,0.01,0.15,0.00,25.91,28.44,30.97,5.96,31.17,1014.29,2048.03,3445.00,3300.99,3590.01,349.30,319.44,25.90,0000 0000 0000 0000 000000
2013-08-03 01:06:14,0.02,0.15,0.00,25.87,28.45,30.97,5.90,31.21,1014.32,2048.02,3445.00,3300.98,3590.02,348.99,319.35,25.91,0000 0000 0000 0000 000000
2013-08-03 01:07:14,-0.01,0.15,0.00,25.88,28.45,30.96,5.93,31.25,1014.36,2048.01,3445.00,3300.98,3590.01,350.23,320.32,25.91,0000 0000 0000 0000 000000
2013-08-03 01:08:14,0.00,0.15,0.00,25.90,28.45,30.96,5.88,31.17,1014.40,2048.01,3444.99,3300.99,3590.01,350.29,320.33,25.92,0000 0000 0000 0000 000000
2013-08-03 01:09:14,0.00,0.15,0.00,25.90,28.45,30.99,5.81,31.21,1014.37,2048.00,3444.99,3300.98,3590.01,350.04,319.88,25.92,0000 0000 0000 0000 000000
2013-08-03 01:10:14,0.00,0.15,0.00,25.93,28.45,30.98,6.04,31.42,1014.36,2048.00,3444.99,3300.98,3590.01,350.23,320.56,25.93,0000 0000 0000 0000 000000
2013-08-03 01:11:14,0.00,0.15,0.00,25.95,28.45,31.00,5.83,31.33,1014.31,2048.00,3444.98,3300.99,3590.00,350.36,320.38,25.93,0000 0000 0000 0000 000000
2013-08-03 01:12:15,0.00,0.15,0.00,25.97,28.46,31.02,5.89,31.21,1014.26,2048.00,3444.98,3300.99,3590.01,350.59,320.54,25.94,0000 0000 0000 0000 000000
2013-08-03 01:13:15,0.00,0.15,0.00,25.98,28.47,31.02,5.95,31.17,1014.30,2048.00,3444.99,3300.98,3590.00,350.21,320.21,25.95,0000 0000 0000 0000 000000
2013-08-03 01:14:15,0.00,0.15,0.00,25.95,28.47,31.04,5.88,31.29,1014.24,2048.00,3444.98,3300.95,3590.00,349.81,319.84,25.95,0000 0000 0000 0000 000000
2013-08-03 01:15:15,0.01,0.15,0.00,25.94,28.47,31.05,5.95,31.46,1014.28,2048.00,3444.97,3300.96,3590.00,350.03,320.07,25.96,0000 0000 0000 0000 000000
2013-08-03 01:16:16,0.00,0.15,0.00,25.97,28.47,31.03,5.88,31.21,1014.30,2048.00,3444.94,3300.92,3590.00,350.00,319.58,25.96,0000 0000 0000 0000 000000
2013-08-03 01:17:16,0.01,0.15,0.00,25.98,28.47,31.02,5.83,31.04,1014.29,2048.00,3444.91,3300.83,3590.00,349.42,319.47,25.97,0000 0000 0000 0000 000000
2013-08-03 01:18:16,0.02,0.15,0.00,26.02,28.48,31.02,5.74,31.25,1014.32,2048.00,3444.93,3300.85,3590.00,348.30,318.33,25.98,0000 0000 0000 0000 000000
2013-08-03 01:19:16,0.00,0.15,0.00,26.07,28.49,31.01,5.97,31.38,1014.32,2048.00,3444.89,3300.70,3590.00,350.12,319.80,25.98,0000 0000 0000 0000 000000
2013-08-03 01:20:17,0.03,0.15,0.00,26.08,28.50,31.04,5.91,31.33,1014.27,2048.00,3444.77,3300.50,3590.00,349.60,319.51,25.99,0000 0000 0000 0000 000000
2013-08-03 01:21:17,0.08,0.15,0.00,26.03,28.50,31.03,5.89,31.21,1014.29,2048.00,3444.54,3300.31,3589.98,349.97,319.92,25.99,0000 0000 0000 0000 000000
2013-08-03 01:22:17,0.05,0.15,0.00,25.92,28.50,31.02,5.86,31.08,1014.29,2048.00,3444.49,3300.27,3589.99,350.05,320.43,26.00,0000 0000 0000 0000 000000
2013-08-03 01:23:17,0.01,0.15,0.00,25.88,28.50,30.97,5.76,31.21,1014.30,2048.00,3444.63,3300.28,3589.97,349.59,319.94,26.01,0000 0000 0000 0000 000000
2013-08-03 01:24:18,0.00,0.15,0.00,25.91,28.50,30.99,5.85,31.21,1014.28,2048.00,3444.36,3300.16,3589.96,349.71,319.52,26.01,0000 0000 0000 0000 000000
2013-08-03 01:25:18,0.05,0.15,0.00,25.98,28.51,30.95,5.88,31.21,1014.33,2048.00,3444.18,3300.10,3589.90,349.26,319.34,26.02,0000 0000 0000 0000 000000
2013-08-03 01:26:18,0.04,0.15,0.00,26.03,28.52,30.97,6.00,31.21,1014.36,2047.99,3444.17,3300.10,3589.87,350.53,320.45,26.02,0000 0000 0000 0000 000000
2013-08-03 01:27:18,-0.00,0.15,0.00,26.04,28.52,31.00,5.90,31.50,1014.39,2047.99,3444.13,3300.10,3589.79,349.69,319.69,26.03,0000 0000 0000 0000 000000
2013-08-03 01:28:19,0.01,0.15,0.00,26.08,28.52,31.01,5.89,31.21,1014.41,2047.98,3444.23,3300.04,3589.63,350.07,320.00,26.03,0000 0000 0000 0000 000000
2013-08-03 01:29:19,0.01,0.15,0.00,26.09,28.52,31.03,5.98,31.21,1014.38,2047.98,3444.24,3300.03,3589.58,350.14,320.19,26.04,0000 0000 0000 0000 000000
2013-08-03 01:30:19,0.01,0.15,0.00,26.09,28.52,31.07,5.88,31.33,1014.38,2047.97,3444.20,3300.01,3589.61,349.49,319.66,26.05,0000 0000 0000 0000 000000
2013-08-03 01:31:19,-0.00,0.15,0.00,26.13,28.54,31.08,5.86,31.29,1014.33,2047.97,3444.10,3300.00,3589.47,349.81,319.69,26.05,0000 0000 0000 0000 000000
2013-08-03 01:32:20,0.02,0.15,0.00,26.11,28.55,31.09,5.90,31.46,1014.33,2047.97,3444.06,3300.00,3589.41,348.65,318.65,26.06,0000 0000 0000 0000 000000
2013-08-03 01:33:20,0.01,0.15,0.00,26.11,28.55,31.11,5.77,31.17,1014.26,2047.95,3444.02,3300.00,3589.20,350.54,319.81,26.06,0000 0000 0000 0000 000000
2013-08-03 01:34:20,0.00,0.15,0.00,26.09,28.55,31.09,5.85,31.25,1014.24,2047.93,3444.01,3300.00,3589.09,349.78,319.67,26.07,0000 0000 0000 0000 000000
2013-08-03 01:35:20,0.01,0.16,0.00,26.14,28.55,31.10,5.94,31.29,1014.33,2047.93,3444.00,3300.00,3589.03,349.86,319.72,26.08,0000 0000 0000 0000 000000
2013-08-03 01:36:21,-0.02,0.16,0.00,26.14,28.55,31.11,5.90,31.29,1014.37,2047.88,3444.00,3300.00,3589.03,349.79,319.66,26.08,0000 0000 0000 0000 000000
2013-08-03 01:37:21,-0.01,0.16,0.00,26.09,28.56,31.11,5.83,31.33,1014.39,2047.91,3444.01,3300.00,3589.02,350.76,320.61,26.09,0000 0000 0000 0000 000000
2013-08-03 01:38:21,-0.01,0.16,0.00,26.15,28.57,31.08,6.06,31.13,1014.36,2047.84,3444.00,3300.00,3589.01,351.01,320.83,26.09,0000 0000 0000 0000 000000
2013-08-03 01:39:22,-0.05,0.15,0.00,26.17,28.57,31.09,5.82,31.25,1014.41,2047.73,3444.00,3300.00,3589.02,349.33,319.45,26.10,0000 0000 0000 0000 000000
2013-08-03 01:40:22,-0.06,0.15,0.00,26.19,28.57,31.12,5.93,31.13,1014.40,2047.69,3444.00,3299.98,3589.00,349.45,319.32,26.10,0000 0000 0000 0000 000000
2013-08-03 01:41:22,-0.06,0.15,0.00,26.13,28.57,31.15,5.96,31.21,1014.38,2047.62,3444.00,3299.99,3589.00,350.28,320.12,26.11,0000 0000 0000 0000 000000
2013-08-03 01:42:23,-0.03,0.15,0.00,26.16,28.58,31.16,5.86,31.33,1014.34,2047.44,3443.57,3299.30,3588.36,349.89,319.41,26.12,0000 0000 0000 0000 000000
2013-08-03 01:43:23,0.28,0.16,0.00,26.19,28.60,31.12,5.91,31.38,1014.36,2047.27,3442.13,3297.46,3586.42,350.68,320.22,26.12,0000 0000 0000 0000 000000
2013-08-03 01:44:23,0.70,0.16,0.00,26.19,28.60,31.12,5.98,31.50,1014.36,2047.21,3440.80,3295.91,3584.77,349.37,319.54,26.13,0000 0000 0000 0000 000000
2013-08-03 01:45:24,0.55,0.16,0.00,26.21,28.60,31.12,5.84,31.38,1014.37,2047.12,3440.29,3295.33,3584.08,349.05,319.18,26.13,0000 0000 0000 0000 000000
2013-08-03 01:46:24,0.20,0.16,0.00,26.21,28.60,31.13,5.87,31.21,1014.46,2047.12,3440.10,3295.12,3583.81,350.16,319.90,26.14,0000 0000 0000 0000 000000
2013-08-03 01:47:24,0.08,0.16,0.00,26.21,28.60,31.15,5.96,31.25,1014.48,2047.11,3440.02,3294.96,3583.62,350.32,319.97,26.15,0000 0000 0000 0000 000000
2013-08-03 01:48:24,0.13,0.17,0.00,26.13,28.62,31.14,5.80,31.25,1014.46,2047.06,3439.48,3294.01,3582.74,349.47,319.41,26.15,0000 0000 0000 0000 000000
2013-08-03 01:49:25,0.34,0.17,0.00,26.06,28.62,31.13,5.85,31.25,1014.40,2047.05,3438.64,3293.07,3581.73,350.39,320.30,26.16,0000 0000 0000 0000 000000
2013-08-03 01:50:25,0.38,0.17,0.00,26.03,28.62,31.14,5.93,31.04,1014.42,2047.03,3438.23,3292.47,3581.26,350.86,320.52,26.16,0000 0000 0000 0000 000000
2013-08-03 01:51:25,0.22,0.17,0.00,26.03,28.62,31.12,5.91,31.25,1014.47,2047.02,3438.08,3292.22,3581.09,349.56,319.60,26.17,0000 0000 0000 0000 000000
2013-08-03 01:52:26,0.07,0.17,0.00,26.04,28.63,31.13,5.89,31.21,1014.42,2047.00,3438.03,3292.13,3581.03,349.74,319.75,26.18,0000 0000 0000 0000 000000
2013-08-03 01:53:26,0.01,0.17,0.00,26.08,28.64,31.17,5.88,31.04,1014.44,2047.00,3438.01,3292.14,3581.01,350.60,320.57,26.18,0000 0000 0000 0000 000000
2013-08-03 01:54:26,0.00,0.17,0.00,26.12,28.65,31.19,5.97,31.25,1014.47,2047.00,3438.00,3292.12,3581.00,350.27,320.21,26.19,0000 0000 0000 0000 000000
2013-08-03 01:55:26,0.01,0.17,0.00,26.16,28.65,31.20,5.88,31.13,1014.43,2047.00,3438.00,3292.09,3580.99,350.11,320.02,26.19,0000 0000 0000 0000 000000
2013-08-03 01:56:27,0.01,0.17,0.00,26.22,28.65,31.20,5.85,31.21,1014.52,2047.00,3437.94,3292.04,3580.86,349.77,319.61,26.20,0000 0000 0000 0000 000000
2013-08-03 01:57:27,0.05,0.17,0.00,26.20,28.65,31.20,5.88,31.17,1014.47,2047.00,3437.55,3292.01,3580.43,349.86,319.70,26.20,0000 0000 0000 0000 000000
2013-08-03 01:58:27,0.10,0.17,0.00,26.24,28.66,31.21,5.80,31.29,1014.45,2047.00,3437.20,3291.88,3580.17,349.25,318.92,26.21,0000 0000 0000 0000 000000
2013-08-03 01:59:28,0.10,0.17,0.00,26.29,28.67,31.20,5.92,31.17,1014.40,2047.00,3437.07,3291.49,3580.06,350.17,319.86,26.22,0000 0000 0000 0000 000000
2013-08-03 02:00:28,0.10,0.17,0.00,26.31,28.67,31.22,5.85,31.29,1014.46,2047.00,3436.86,3291.04,3579.76,349.17,318.94,26.22,0000 0000 0000 0000 000000
2013-08-03 02:01:28,0.36,0.17,0.00,26.31,28.67,31.24,5.86,31.38,1014.40,2047.00,3435.12,3288.93,3577.16,349.26,319.34,26.23,0000 0000 0000 0000 000000
2013-08-03 02:02:28,0.89,0.18,0.00,26.34,28.67,31.25,5.82,31.21,1014.35,2047.00,3433.27,3286.71,3574.60,349.69,319.35,26.23,0000 0000 0000 0000 000000
2013-08-03 02:03:29,0.97,0.18,0.00,26.28,28.69,31.27,5.77,31.25,1014.38,2047.00,3432.17,3285.59,3572.99,349.92,319.63,26.24,0000 0000 0000 0000 000000
2013-08-03 02:04:29,0.56,0.19,0.00,26.27,28.70,31.26,5.83,31.33,1014.44,2047.00,3431.66,3285.15,3572.35,349.82,319.58,26.25,0000 0000 0000 0000 000000
2013-08-03 02:05:29,0.23,0.19,0.00,26.24,28.70,31.28,5.78,31.33,1014.49,2047.00,3431.43,3284.95,3572.12,349.79,319.59,26.25,0000 0000 0000 0000 000000
2013-08-03 02:06:30,0.12,0.19,0.00,26.24,28.70,31.26,5.97,31.42,1014.50,2047.00,3431.18,3284.59,3572.04,350.21,319.98,26.26,0000 0000 0000 0000 000000
2013-08-03 02:07:30,0.08,0.19,0.00,26.29,28.70,31.29,5.98,31.50,1014.50,2047.00,3431.07,3284.52,3572.01,350.22,319.94,26.26,0000 0000 0000 0000 000000
2013-08-03 02:08:30,0.04,0.19,0.00,26.37,28.72,31.28,5.96,31.13,1014.53,2047.00,3431.02,3284.34,3572.00,351.10,320.67,26.27,0000 0000 0000 0000 000000
2013-08-03 02:09:31,0.04,0.19,0.00,26.39,28.72,31.31,5.86,31.25,1014.57,2047.00,3431.00,3284.19,3572.00,349.44,319.14,26.27,0000 0000 0000 0000 000000
2013-08-03 02:10:31,0.03,0.19,0.00,26.40,28.72,31.32,5.90,31.38,1014.60,2047.00,3431.00,3284.10,3572.00,350.03,319.92,26.28,0000 0000 0000 0000 000000
2013-08-03 02:11:32,0.01,0.19,0.00,26.33,28.72,31.30,5.97,31.13,1014.60,2047.00,3431.00,3284.09,3572.00,351.00,320.39,26.29,0000 0000 0000 0000 000000
2013-08-03 02:12:32,0.00,0.19,0.00,26.36,28.73,31.31,6.07,31.13,1014.56,2047.00,3430.91,3284.04,3571.87,351.51,321.07,26.29,0000 0000 0000 0000 000000
2013-08-03 02:13:32,0.05,0.19,0.00,26.39,28.74,31.27,5.79,31.38,1014.58,2047.00,3430.63,3284.01,3571.40,349.21,318.94,26.30,0000 0000 0000 0000 000000
2013-08-03 02:14:32,0.09,0.19,0.00,26.41,28.75,31.30,5.68,31.08,1014.50,2047.00,3430.34,3284.00,3571.15,349.19,318.88,26.30,0000 0000 0000 0000 000000
2013-08-03 02:15:33,0.06,0.19,0.00,26.42,28.75,31.34,5.89,31.25,1014.46,2047.00,3430.14,3283.95,3571.05,350.55,320.15,26.31,0000 0000 0000 0000 000000
2013-08-03 02:16:33,0.04,0.19,0.00,26.39,28.75,31.34,5.77,31.08,1014.47,2047.00,3430.07,3283.90,3571.02,349.66,319.39,26.32,0000 0000 0000 0000 000000
2013-08-03 02:17:33,0.02,0.19,0.00,26.42,28.76,31.32,5.94,31.21,1014.50,2047.00,3430.03,3283.89,3571.00,350.16,319.26,26.32,0000 0000 0000 0000 000000
2013-08-03 02:18:33,0.04,0.20,0.00,26.45,28.77,31.32,5.91,31.38,1014.41,2047.00,3430.01,3283.57,3571.00,349.48,319.22,26.33,0000 0000 0000 0000 000000
2013-08-03 02:19:34,0.06,0.20,0.00,26.46,28.77,31.35,5.80,30.96,1014.43,2047.00,3430.00,3283.23,3570.97,350.34,319.87,26.33,0000 0000 0000 0000 000000
2013-08-03 02:20:34,0.06,0.20,0.00,26.52,28.77,31.38,5.93,31.25,1014.33,2047.00,3429.97,3283.08,3570.85,350.07,318.96,26.34,0000 0000 0000 0000 000000
2013-08-03 02:21:34,0.05,0.20,0.00,26.46,28.78,31.37,5.89,31.17,1014.36,2047.00,3429.91,3283.03,3570.51,349.97,319.34,26.35,0000 0000 0000 0000 000000
2013-08-03 02:22:34,0.04,0.20,0.00,26.46,28.79,31.39,5.80,31.17,1014.36,2047.00,3429.92,3283.01,3570.27,348.48,318.13,26.35,0000 0000 0000 0000 000000
2013-08-03 02:23:35,0.03,0.20,0.00,26.48,28.80,31.38,5.88,31.17,1014.42,2047.00,3429.79,3283.00,3570.17,349.62,319.16,26.36,0000 0000 0000 0000 000000
2013-08-03 02:24:35,0.04,0.20,0.00,26.48,28.80,31.38,5.80,31.29,1014.42,2047.00,3429.54,3283.00,3570.08,349.86,319.15,26.36,0000 0000 0000 0000 000000
2013-08-03 02:25:35,0.04,0.20,0.00,26.49,28.80,31.39,5.88,31.33,1014.44,2047.00,3429.38,3283.00,3570.04,349.34,318.90,26.37,0000 0000 0000 0000 000000
2013-08-03 02:26:36,0.02,0.20,0.00,26.47,28.81,31.37,5.95,31.21,1014.36,2047.00,3429.17,3283.00,3570.01,350.04,319.54,26.37,0000 0000 0000 0000 000000
2013-08-03 02:27:36,0.02,0.20,0.00,26.49,28.82,31.40,5.98,31.25,1014.29,2047.00,3429.08,3282.99,3570.00,349.82,319.45,26.38,0000 0000 0000 0000 000000
2013-08-03 02:28:36,0.01,0.20,0.00,26.53,28.82,31.38,5.83,31.42,1014.32,2047.00,3429.03,3282.92,3570.00,349.41,319.22,26.39,0000 0000 0000 0000 000000
2013-08-03 02:29:37,0.01,0.20,0.00,26.58,28.82,31.40,5.84,31.25,1014.33,2046.98,3429.01,3282.64,3569.99,349.36,318.79,26.39,0000 0000 0000 0000 000000
2013-08-03 02:30:37,0.06,0.20,0.00,26.57,28.83,31.40,5.85,31.13,1014.35,2046.98,3429.00,3282.30,3569.97,350.07,319.68,26.40,0000 0000 0000 0000 000000
2013-08-03 02:31:37,0.05,0.20,0.00,26.51,28.84,31.44,5.77,31.08,1014.32,2046.98,3429.00,3282.15,3569.93,349.97,319.49,26.40,0000 0000 0000 0000 000000
2013-08-03 02:32:38,0.03,0.20,0.00,26.53,28.85,31.45,5.83,31.04,1014.31,2046.98,3429.00,3282.07,3569.83,349.95,319.38,26.41,0000 0000 0000 0000 000000
2013-08-03 02:33:38,0.02,0.20,0.00,26.56,28.85,31.45,5.84,31.29,1014.28,2046.97,3428.96,3282.04,3569.61,349.79,319.19,26.42,0000 0000 0000 0000 000000
2013-08-03 02:34:38,0.02,0.20,0.00,26.59,28.85,31.44,5.92,31.33,1014.26,2046.96,3428.97,3282.01,3569.48,349.58,319.39,26.42,0000 0000 0000 0000 000000
2013-08-03 02:35:38,0.02,0.20,0.00,26.60,28.87,31.45,5.86,31.13,1014.25,2046.96,3428.92,3282.00,3569.31,349.51,318.84,26.43,0000 0000 0000 0000 000000
2013-08-03 02:36:39,0.01,0.20,0.00,26.60,28.87,31.46,5.93,31.17,1014.23,2046.92,3428.81,3282.01,3569.17,349.51,319.06,26.43,0000 0000 0000 0000 000000